AO-27 - Orbit

View from above orbital plane
View from above orbital plane
View from above satellite
View from above satellite

Ground track
Ground track

The orbit data is extracted from the following two-line orbital elements,

1 22825U 93061C   13138.87315196  .00000115  00000-0  62116-4 0  3861
2 22825 098.6165 083.2104 0008569 022.7636 010.5604 14.29561403 24443
Epoch (UTC): 18 May 2013 20:57:20
Eccentricity: 0.0008569
inclination: 98.6165°
perigee height: 787 km
apogee height: 799 km
right ascension of ascending node: 83.2104°
argument of perigee: 22.7636°
revolutions per day: 14.29561403
mean anomaly at epoch: 10.5604°
orbit number at epoch: 2444

The dashed part of the orbit path shows where the satellite is in the earth's shadow,  

Developed and maintained by Chris Peat, Heavens-Above GmbH. Please read the updated FAQ before sending e-mail. Imprint. DLR